Regional Weather Roundup
Issued by NWS

Home | Current Version | Previous Version | Graphics & Text | Print | Product List | Glossary On
Versions: 1 2 3 4 5 6 7 8 9 10 11 12 13 14 15 16 17 18 19 20 21 22 23 24 25 26 27 28 29 30 31 32 33 34 35 36 37 38 39 40 41 42 43 44 45 46 47 48 49 50
613
ASUS45 KPSR 290810
RWRAZ

ARIZONA HOURLY REGIONAL WEATHER ROUNDUP
NATIONAL WEATHER SERVICE PHOENIX AZ
100 AM MST MON MAY 29 2017

NOTE: FAIR INDICATES FEW OR NO CLOUDS BELOW 12,000 FEET WITH NO
SIGNIFICANT WEATHER AND/OR OBSTRUCTIONS TO VISIBILITY.

AZZ001>003-036-290900-
NORTHWEST ARIZONA

CITY           SKY/WX    TMP DP  RH WIND       PRES   REMARKS
BULLHEAD CITY  CLEAR     82  14   7 CALM      29.78F
KINGMAN        CLEAR     61  18  18 MISG      29.98F
$$

AZZ004>008-015-016-018-290900-
NORTH CENTRAL ARIZONA

CITY           SKY/WX    TMP DP  RH WIND       PRES   REMARKS
GRAND CANYON   CLEAR     57  21  24 E7        30.22S
WILLIAMS       MOCLDY    48  23  37 SE9       30.20S
PRESCOTT       CLEAR     60  25  26 S9        30.09F
FLAGSTAFF      CLEAR     43  22  43 CALM      30.24S
PAYSON         CLEAR     63  25  23 N6        30.11F
PAGE           CLEAR     65  23  20 W5        30.08R
$$

AZZ009>014-017-290900-
NORTHEAST ARIZONA

CITY           SKY/WX    TMP DP  RH WIND       PRES   REMARKS
WINSLOW        CLEAR     54  18  24 SW5       30.12F
SAINT JOHNS    CLEAR     62  30  29 S7        30.14S
WINDOW ROCK    PTCLDY    46  20  35 CALM      30.25F
SHOW LOW       CLEAR     45  12  26 S3        30.19S
$$

AZZ540-542>544-546-548-290900-
GREATER PHOENIX AREA

CITY           SKY/WX    TMP DP  RH WIND       PRES   REMARKS
PHOENIX        CLEAR     87  23   9 W6        29.79S
BUCKEYE        CLEAR     73  21  14 N6        29.80S
LUKE AFB       CLEAR     74  36  24 NE5       29.79S
DEER VALLEY    CLEAR     75  25  15 SE3       29.81F
SCOTTSDALE     CLEAR     77  37  23 CALM      29.83S
MESA-GATEWAY   CLEAR     72  21  15 E6        29.83S
$$

AZZ539-553-290900-
SOUTHWEST MARICOPA COUNTY AND PINAL COUNTY

CITY           SKY/WX    TMP DP  RH WIND       PRES   REMARKS
CASA GRANDE    CLEAR     80  20  10 W10       29.83F
GILA BEND      FAIR      76  15  10 S7        29.79S
$$

AZZ503-504-507>509-290900-
SOUTHEAST ARIZONA

CITY           SKY/WX    TMP DP  RH WIND       PRES   REMARKS
TUCSON         CLEAR     73  20  13 CALM      29.93S
DAVIS-MONTHAN  CLEAR     71  19  14 S6        29.92S
NOGALES        CLEAR     63  28  26 NE5       30.00F
SIERRA VISTA   CLEAR     68  13  11 SW5       30.06F
DOUGLAS        CLEAR     62  10  13 NE8       30.01S
SAFFORD        CLEAR     68  13  12 SE6       29.94R
$$

AZZ532-290900-
SOUTHWEST ARIZONA

CITY           SKY/WX    TMP DP  RH WIND       PRES   REMARKS
YUMA           CLEAR     79  39  23 S5        29.77F
$$

CAZ041-043-047-048-061-525>527-560>570-290900-
SOUTHERN CALIFORNIA

CITY           SKY/WX    TMP DP  RH WIND       PRES   REMARKS
DOWNTOWN L.A.  MOCLDY    60  56  86 W3        29.95F
L.A. AIRPORT   MOCLDY    61  58  90 W5        29.96F
SAN DIEGO      CLOUDY    62  57  83 CALM      29.99F
BURBANK        CLEAR     61  53  75 E6        29.95F
ONTARIO        PTCLDY    61  54  77 CALM      29.95F
RIVERSIDE      CLEAR     62  54  74 CALM      29.96F
PALM SPRINGS   CLEAR     80  49  33 S3        29.81S
EL CENTRO NAS  CLEAR     75  39  27 W3        29.77F
IMPERIAL       CLEAR     78  43  28 NW7       29.75F
BLYTHE         CLEAR     85  25  11 SW8       29.76S
NEEDLES        CLEAR     82  11   7 W8        29.79F
$$

NVZ020-UTZ003-290900-
SOUTHERN NEVADA-UTAH

CITY           SKY/WX    TMP DP  RH WIND       PRES   REMARKS
LAS VEGAS      CLEAR     78  16   9 S6        29.89S
SALT LAKE CITY CLEAR     60  40  47 CALM      30.14S
$$

NMZ009-TXZ055-290900-
NEW MEXICO-WEST TEXAS

CITY           SKY/WX    TMP DP  RH WIND       PRES   REMARKS
ALBUQUERQUE    CLOUDY    66  34  30 E7        30.19S
EL PASO        CLEAR     72  41  32 SE9       30.07S
$$


........................KEY........................
SKY/WX - SKY CONDITION/WEATHER
TMP    - TEMPERATURE IN FAHRENHEIT
DP     - DEW POINT IN FAHRENHEIT
RH     - RELATIVE HUMIDITY IN PERCENT
WIND   - DIRECTION AND SPEED IN MILES PER HOUR (MPH)
VRB    - VARIABLE WIND DIRECTION
PRES   - MEAN SEA LEVEL PRESSURE IN INCHES OF MERCURY
         F - FALLING PRESSURE   R - RISING PRESSURE
         S - STEADY PRESSURE
VSB    - VISIBILITY IN MILES
HX     - HEAT INDEX IN FAHRENHEIT
WCI    - WIND CHILL INDEX IN FAHRENHEIT
TC     - TEMPERATURE IN CELSIUS WHICH IS ALSO KNOWN AS
         TEMPERATURE IN CENTIGRADE
AFB    - AIR FORCE BASE
         LUKE AFB IS LUKE AIR FORCE BASE
         DAVIS-MONTHAN IS DAVIS-MONTHAN AIR FORCE BASE
NAS    - NAVAL AIR STATION
         EL CENTRO NAS IS EL CENTRO NAVAL AIR STATION
N/A    - NOT AVAILABLE





USA.gov is the U.S. government's official web portal to all federal, state and local government web resources and services.